Tracking 30918 objects as of 2-Jul-2025
HD Live streaming from Space Station
objects crossing your sky now

COSMOS 2357

Track COSMOS 2357 now!
10-day predictions
COSMOS 2357 is classified as:


NORAD ID: 25368
Int'l Code: 1998-036F
Perigee: 1,301.2 km
Apogee: 1,868.9 km
Inclination: 82.6 °
Period: 117.7 minutes
Semi major axis: 7956 km
RCS: 1.0721 m2 (large)
Launch date: June 15, 1998
Source: Commonwealth of Independent States (former USSR) (CIS)
Launch site: PLESETSK MISSILE AND SPACE COMPLEX (PKMTR)

Satellites have a single simultaneous earth-space and space-earth channel.
Your satellite tracking list
STARLINK-3577
Track 1 satellite(s)




NASA's NSSDC Master Catalog

Two Line Element Set (TLE):
1 25368U 98036F   25182.46555357  .00000021  00000-0  70969-4 0  9996
2 25368  82.5858 169.2700 0356776 149.5471 212.6858 12.23376277207755
Source of the keplerian elements: AFSPC